Torna al catalogo

SL-14 R/B

AttivoPO
NORAD 20671·ROCKET BODY·🇷🇺 Russia

Lanciato Jun 27, 1990 da Plesetsk Cosmodrome

Loading…

Prossimi Passaggi (prossime 24 ore)

TLE

AggiornatoSource: Space-Track

Epoca: Sep 14, 2026, 19:54 UTC

1 20671U 90057B   26257.82947905  .00000029  00000-0  12149-4 0  9995
2 20671  82.5480 207.8751 0014976 186.7118 173.3845 13.84741636830076

Traccia SL-14 R/B in tempo reale con AllMySat

Download on the App Store